Regional Weather Roundup
Issued by NWS Cleveland, OH

Home | Current Version | Previous Version | Graphics & Text | Print | Product List | Glossary On
Versions: 1 2 3 4 5 6 7 8 9 10 11 12 13 14 15 16 17 18 19 20 21 22 23 24 25 26 27 28 29 30 31 32 33 34 35 36 37 38 39 40 41 42 43 44 45 46 47 48 49 50
000
ASUS41 KCLE 202212
RWRCLE
OHIO REGIONAL WEATHER ROUNDUP
NATIONAL WEATHER SERVICE WILMINGTON, OH
600 PM EDT FRI OCT 20 2017

NOTE: "FAIR" INDICATES FEW OR NO CLOUDS BELOW 12,000 FEET WITH NO
SIGNIFICANT WEATHER AND/OR OBSTRUCTIONS TO VISIBILITY.

OHZ001>008-015>018-024>027-034-035-043-044-202300-
   NORTHWEST OHIO

CITY           SKY/WX    TMP DP  RH WIND       PRES   REMARKS
DEFIANCE       FAIR      74  51  44 S6        30.15F
FINDLAY        FAIR      73  48  41 S7        30.16F
TOLEDO EXPRESS FAIR      73  52  47 SW5       30.16S
TOLEDO EXEC    FAIR      71  46  40 S7        30.17F
LIMA           FAIR      73  49  42 S6        30.17F
$$

OHZ009>014-019>023-028>033-038-089-202300-
   NORTHEAST OHIO

CITY           SKY/WX    TMP DP  RH WIND       PRES   REMARKS
CLE-HOPKINS    FAIR      71  41  33 S6        30.21F
CLE-LAKEFRONT  FAIR      67  55  65 NE6       30.18F
CUY CO. ARPT   CLEAR     72  43  35 S5        30.21F
LORAIN-ELYRIA  FAIR      69  38  32 S7        30.20F
ASHTABULA      FAIR      68  38  33 S6        30.22F
AKRON-CANTON   FAIR      68  44  42 S5        30.22F
WOOSTER        FAIR      68  39  34 SE6       30.22F
MANSFIELD      FAIR      70  40  33 S8        30.21F
YOUNGSTOWN     FAIR      68  40  35 CALM      30.22F
$$

OHZ042-051>053-060>062-070>072-077>081-202300-
  SOUTHWEST OHIO

CITY           SKY/WX    TMP DP  RH WIND       PRES   REMARKS
CINC-COVINGTON MOCLDY    72  56  57 S8        30.19F
CINC-LUNKEN    FAIR      73  57  57 S5        30.19F
HAMILTON       FAIR      75  54  47 VRB3      30.19F
DAYTON         FAIR      72  54  53 S8        30.20S
WRIGHT-PAT AFB MOCLDY    72  52  48 S8        30.19S
DAYTON GENERAL FAIR      72  53  51 S5        30.19S
WILMINGTON     FAIR      71  53  52 S5        30.20S
$$

OHZ036-037-039>041-045>050-054>059-063>069-073>076-082>088-202300-
  CENTRAL AND SOUTHEAST OHIO

CITY           SKY/WX    TMP DP  RH WIND       PRES   REMARKS
COLUMBUS       FAIR      73  40  30 SE6       30.20F
OSU AIRPORT    FAIR      71  43  36 S6        30.20F
BOLTON FIELD   CLEAR     72  46  40 SE3       30.21F
RICKENBACK AFB FAIR      72  44  35 S3        30.20S
NEWARK         FAIR      73  35  25 CALM      30.20F
MARION         FAIR      70  39  32 S7        30.20F
LANCASTER      FAIR      70  43  37 S5        30.21F
ZANESVILLE     FAIR      72  39  30 CALM      30.21F
NEW PHILLY     FAIR      71  43  36 CALM      30.22F
$$



USA.gov is the U.S. government's official web portal to all federal, state and local government web resources and services.